Other Public Products
Issued by NWS Charleston, SC

Current Version | Previous Version | Text Only | Print | Product List | Glossary Off
Versions: 1 2 3 4 5 6 7 8 9 10 11 12 13 14 15 16 17 18 19 20 21 22 23 24 25 26 27 28 29 30 31 32 33 34 35 36 37 38 39 40 41 42 43 44 45 46 47 48 49 50

000
FPUS82 KCHS 260927
OPUCHS

TEST...KCHS/KSAV Gateway Observations...TEST
National Weather Service Charleston SC
500 AM EDT TUE SEP 26 2017

NOTE: "fair" indicates few or no clouds below 12,000 feet with no
significant weather and/or obstructions to visibility.

SCZ050-WAZ558-NCZ071-TXZ119-213-PAZ071-DCZ001-FLZ074-172-MI076-
NYZ176-178-MAZ016-IL014-TNZ027-NJZ106-GAZ044-MD014-261000-

...Gateway Observations for Charleston International...

CITY           SKY/WX    TMP DP  RH WIND       PRES   REMARKS
Chas Airport   PTCLDY    70  69  97 N7        29.84F
Seattle        PTCLDY    59  54  83 CALM      30.15R
Charlotte      PTCLDY    68  66  93 N7        29.96R
Dallas DFW     CLOUDY    79  68  69 S7        29.88S
Dallas Love    CLOUDY    79  67  66 SE7       29.89S
Philladelphia  PTCLDY    67  64  90 NE3       30.01S
Wash National  PTCLDY    71  67  87 NE8       29.99F
Baltimore      PTCLDY    68  66  93 N3        29.99F
Miami          CLOUDY    82  79  90 S3        29.86S HX  92
Detroit        CLOUDY    71  67  87 CALM      29.98S
Newark         MOCLDY    69  66  90 N3        30.03S
Laguardia      MOCLDY    69  67  93 NE5       30.01F
J F K          CLOUDY    68  67  96 N7        30.03F
Boston Logan   FOG       65  65 100 NE3       30.02F VSB 3/4
Ft. Lauderdale CLOUDY    82  76  81 SW3       29.84F
Chicago O`Hare CLEAR     72  57  59 CALM      29.92F
Chicago Midway CLEAR     74  58  57 S6        29.93S
Houston Bush   PTCLDY    73  71  93 N3        29.87S
Houston Hobby  PTCLDY    77  72  84 CALM      29.86S
Nashville      CLEAR     68  66  93 CALM      29.97S
Atlanta        CLEAR     71  62  73 NE6       29.97S

$$

GAZ044-118-TXZ119-213-NCZ071-DCZ001-MDZ014-506-PAZ021-071-NJZ106-
NYZ176-178-MAZ106-OHZ011-021-055-MIZ076-KYZ091-ILZ014-INZ047-
MNZ060-ONZ431-261000-

...Gateway Observations for Savannah International...

CITY           SKY/WX    TMP DP  RH WIND       PRES   REMARKS
Savannah Arpt  CLEAR     68  67  96 W5        29.89R
Atlanta        CLEAR     71  62  73 NE6       29.97S
Charlotte      PTCLDY    68  66  93 N7        29.96R
Dallas DFW     CLOUDY    79  68  69 S7        29.88S
Houston Bush   PTCLDY    73  71  93 N3        29.87S
Wash National  PTCLDY    71  67  87 NE8       29.99F
Wash Dulles    PTCLDY    68  66  93 N5        29.99F
Baltimore      PTCLDY    68  66  93 N3        29.99F
Philadelphia   PTCLDY    67  64  90 NE3       30.01S
Newark         MOCLDY    69  66  90 N3        30.03S
Laguardia      MOCLDY    69  67  93 NE5       30.01F
J F K          CLOUDY    68  67  96 N7        30.03F
Boston         FOG       65  65 100 NE3       30.02F VSB 3/4
Pittsburg      MOCLDY    66  64  93 CALM      30.03F
Akron          PTCLDY    68  59  73 S3        30.04S
Cleveland      MOCLDY    71  63  75 S3        30.02S
Cincinnati     CLEAR     66  65  96 CALM      30.01S
Columbus       CLEAR     62  62 100 CALM      30.02R
Detroit        CLOUDY    71  67  87 CALM      29.98S
Chicago O`Hare CLEAR     72  57  59 CALM      29.92F
Minneapolis    LGT RAIN  58  58 100 NW6       29.91F
Indianapolis   CLEAR     72  64  76 S6        29.99S
Toronto Canada MOCLDY    70  64  83 CALM      29.99S

$$




USA.gov is the U.S. government's official web portal to all federal, state and local government web resources and services.